Wetbulb
55.71 56.56 58.82 58.39 57.82 57.16 57.35 57.71 58.14 58.22 58.00 58.07 58.13 57.62 57.26 56.94 56.54 55.16 47.96 52.33 55.00 61.53 58.76 54.67 54.48 52.96 53.38 50.85 51.80 50.79 44.03 41.04 42.41 43.33 45.19 48.40 47.85 48.79 50.44 49.79 49.94 50.79 50.76 52.56 55.21
54.21 54.71 56.59 58.80 58.65 58.35 58.48 58.88 59.06 58.89 58.73 58.68 58.65 57.89 58.08 57.06 51.83 48.83 56.38 58.30 60.72 61.31 54.52 51.89 50.76 51.32 49.54 49.41 49.62 48.09 42.94 42.00 46.49 47.33 46.96 47.30 47.42 48.06 47.41 47.64 49.72 51.00 52.93 53.11 53.97
52.54 53.18 54.87 55.66 59.21 59.41 59.40 59.59 59.86 59.65 59.29 58.89 58.74 58.53 57.77 56.38 47.95 48.04 58.75 60.23 61.34 60.31 54.86 54.05 53.31 50.97 47.96 49.39 48.29 46.73 42.61 45.54 46.11 47.81 47.52 47.27 46.77 48.09 47.53 47.67 49.97 50.40 51.44 52.48 53.60
50.81 52.16 52.92 54.28 55.77 58.77 59.11 59.06 59.10 59.47 59.60 59.13 59.01 58.37 55.48 52.97 39.10 52.03 61.51 60.71 62.95 57.39 53.52 51.67 51.13 47.99 46.68 45.52 48.49 43.21 46.40 45.75 46.48 47.00 46.98 46.43 47.42 46.65 47.21 49.34 51.18 51.48 51.40 52.16 53.01
49.90 50.94 51.35 52.28 53.35 54.71 58.89 58.03 57.71 58.44 58.93 59.18 58.76 56.56 52.89 45.24 44.28 56.33 61.06 61.44 57.50 53.93 51.37 50.14 48.63 47.86 44.74 46.20 46.46 44.75 45.70 46.00 47.43 46.31 46.11 46.16 46.72 46.71 47.38 50.85 51.65 51.11 50.04 50.94 52.03
50.19 49.53 50.46 50.47 51.51 52.58 53.89 55.96 55.85 56.36 57.35 58.10 58.74 54.80 48.53 37.99 50.96 56.77 54.89 53.67 53.47 52.44 51.18 51.03 49.39 49.50 46.36 45.94 45.68 46.76 46.48 46.30 47.12 47.09 46.50 45.22 47.19 46.29 49.26 50.17 50.08 49.54 51.18 51.71 51.49
50.33 49.53 49.55 49.40 49.37 50.62 51.92 52.97 53.52 54.42 55.49 57.26 57.09 51.58 46.11 43.24 51.79 55.32 53.52 52.25 53.37 52.11 49.98 51.01 51.52 49.19 47.78 44.97 47.26 46.31 43.71 45.94 46.51 45.93 46.18 46.24 45.74 44.94 50.40 49.60 49.17 50.12 50.98 51.68 52.20
49.66 49.52 48.64 47.77 48.20 48.91 50.33 51.95 52.56 52.83 54.31 57.03 54.17 49.47 47.23 50.28 53.41 51.99 53.07 51.71 53.39 53.25 52.74 53.20 52.44 49.52 47.22 47.21 45.25 43.69 44.32 41.25 44.59 44.57 45.13 45.03 43.94 48.51 48.69 49.16 50.15 51.60 52.42 52.44 53.55
48.58 49.46 48.08 46.66 46.54 47.31 48.85 50.99 52.36 53.44 54.41 56.52 51.55 47.21 45.46 52.33 48.84 51.38 53.06 50.05 51.83 52.35 52.67 52.03 51.45 47.71 47.07 42.79 40.59 41.37 40.13 39.97 42.30 44.94 44.57 42.96 44.25 47.89 48.71 49.86 49.93 51.96 52.83 52.06 52.07
47.82 48.34 48.13 45.78 45.14 46.21 47.85 50.18 52.25 54.07 55.46 51.02 49.18 44.51 46.71 43.53 48.26 50.10 52.12 52.33 49.96 50.23 49.05 48.63 46.89 43.94 43.68 40.61 36.16 38.30 38.16 40.62 41.60 43.01 43.79 44.13 43.86 48.15 50.11 48.87 49.45 50.63 51.10 50.21 49.60
48.01 47.64 46.79 45.35 44.53 45.81 46.77 47.32 47.81 46.45 47.41 45.95 45.42 43.75 45.04 47.27 49.91 48.17 51.18 49.40 49.13 47.23 41.63 44.13 40.88 38.25 40.28 41.76 40.38 40.26 39.62 39.76 41.86 42.66 41.95 42.77 42.77 45.57 48.91 48.99 48.08 47.53 48.28 48.34 48.51
48.08 46.82 45.65 44.70 43.97 45.25 46.24 43.89 44.92 45.18 42.84 47.65 46.02 46.15 46.58 47.71 43.10 46.19 50.94 45.63 44.52 39.48 42.18 40.75 37.26 41.52 42.90 41.97 41.60 39.98 38.16 38.56 41.21 42.22 42.38 42.85 42.69 46.11 46.19 45.29 45.61 45.34 45.80 46.25 47.58
46.03 45.26 44.55 43.85 43.70 43.57 42.34 44.74 48.90 47.89 39.12 41.18 46.27 45.69 45.23 45.96 41.54 44.28 48.49 44.73 41.31 38.94 40.29 37.01 38.35 41.93 40.85 39.72 38.83 39.39 38.12 37.48 38.09 41.10 41.14 40.69 43.92 43.66 43.84 45.20 45.51 44.45 45.69 45.54 45.65
44.75 44.08 43.46 43.26 40.29 42.30 40.06 45.00 47.72 49.18 36.57 35.95 40.37 44.90 45.02 45.12 39.71 45.94 48.80 45.32 40.68 38.21 38.77 38.82 40.57 38.63 38.76 37.48 39.65 35.83 40.77 39.53 38.48 39.31 38.53 40.23 40.21 39.11 42.29 42.89 41.84 41.23 42.67 43.86 44.55
43.69 42.98 42.61 43.34 41.81 39.88 41.02 42.18 48.37 45.70 26.30 37.05 40.46 47.35 44.57 42.27 42.35 42.86 47.48 44.24 39.31 38.12 39.19 36.42 37.64 37.39 36.86 38.07 39.96 37.86 40.63 40.25 39.48 38.87 38.21 37.66 38.17 41.78 41.25 40.00 38.07 38.94 40.40 41.62 43.53
42.98 42.36 42.22 40.78 42.34 40.59 41.89 43.00 46.76 32.13 24.17 34.15 39.82 39.39 40.27 41.33 40.48 43.20 43.67 44.60 43.61 39.64 38.75 37.28 40.16 40.38 40.36 39.31 41.00 40.29 39.52 38.42 38.33 38.14 34.06 34.87 35.60 40.08 34.66 33.11 36.02 37.73 38.33 39.16 41.13
44.04 43.53 40.91 40.71 38.74 42.60 42.09 44.04 30.37 25.62 30.85 32.46 34.97 38.85 39.56 37.86 38.02 40.30 38.84 36.90 34.70 31.29 32.49 35.30 36.23 39.17 40.16 38.41 39.95 38.67 37.95 32.71 31.34 31.82 32.26 32.18 32.60 36.73 33.28 34.61 34.50 34.74 36.41 37.68 39.14
42.95 41.34 39.76 38.67 41.47 43.20 42.82 35.69 23.38 26.52 30.01 38.03 37.21 38.76 35.78 38.74 37.25 37.85 36.83 34.10 37.47 36.47 32.58 30.37 27.54 36.59 40.09 39.69 38.38 37.48 37.87 35.29 28.20 27.87 30.89 31.77 30.88 34.98 34.62 35.39 35.64 35.78 36.25 36.43 36.76
40.75 39.25 38.10 38.57 41.27 43.13 39.26 27.88 25.95 26.38 34.46 35.86 37.11 33.08 34.64 37.19 37.66 36.91 36.08 35.58 37.73 37.37 34.83 30.63 30.21 37.36 37.91 39.21 40.62 37.37 34.82 37.31 30.36 25.34 29.46 34.28 34.00 33.37 35.59 34.34 33.95 33.88 34.60 33.60 34.66
38.16 36.46 35.83 37.76 40.16 42.79 33.65 26.67 29.98 34.18 35.84 37.19 31.86 35.40 31.80 34.76 34.99 35.98 34.74 37.82 37.76 39.58 40.36 36.62 30.24 34.35 36.39 39.08 38.51 38.55 39.57 32.96 33.87 25.79 24.34 29.75 30.25 34.17 32.44 31.12 31.27 31.12 31.65 32.30 33.52
35.39 32.22 36.81 37.31 42.59 35.41 29.52 27.26 31.27 35.72 36.50 36.02 35.41 34.74 34.97 34.46 35.82 35.14 35.42 37.46 39.25 38.68 41.80 39.40 36.52 31.58 35.26 34.73 34.81 34.83 34.23 33.70 35.82 32.74 26.93 25.93 31.24 32.66 30.75 30.20 30.51 30.70 31.26 31.77 32.38
32.83 27.35 36.34 38.50 30.66 29.77 27.51 29.21 32.86 31.81 35.02 36.97 37.23 36.23 34.85 35.54 35.11 35.20 33.78 35.74 40.94 40.23 36.92 40.72 36.68 30.82 32.02 35.25 36.75 35.78 35.92 36.12 31.76 26.87 29.35 28.96 30.20 32.09 31.20 30.40 30.68 30.12 30.55 31.72 32.18
30.44 29.26 35.50 35.77 27.11 26.25 27.72 28.53 29.47 30.24 28.80 32.33 32.77 35.50 36.63 33.63 32.23 34.12 34.91 37.93 38.66 39.61 37.77 40.05 33.48 30.76 30.89 35.07 35.97 33.58 35.13 35.03 34.46 33.96 28.46 28.71 30.27 31.66 30.98 30.22 30.05 30.04 30.53 30.90 31.09
28.05 25.48 30.02 28.63 24.34 26.46 24.93 25.29 26.15 29.26 27.93 31.72 31.39 33.61 33.93 31.48 32.18 30.69 32.81 34.81 36.89 35.62 40.24 40.71 34.63 32.26 30.47 31.33 34.37 30.73 32.29 34.20 35.14 31.36 31.96 32.64 28.65 28.88 30.05 29.55 29.44 29.83 30.37 30.39 30.39
26.60 21.74 22.73 22.15 23.21 24.76 24.24 24.33 23.01 22.04 27.03 29.33 29.34 29.49 29.79 27.58 27.67 27.48 30.30 34.36 34.89 33.72 35.91 36.07 31.50 33.27 34.14 34.10 33.66 31.86 31.79 32.13 32.26 34.69 31.37 33.53 31.32 31.65 31.07 29.79 29.00 29.65 29.67 29.33 29.06
26.47 24.32 23.93 23.13 22.43 22.88 23.11 22.40 21.19 19.60 22.95 24.39 23.73 26.27 29.29 24.02 23.77 26.67 27.03 27.98 25.91 31.18 34.14 35.49 30.65 31.93 29.10 32.78 32.28 31.16 32.29 32.84 32.94 32.72 33.18 32.70 26.79 31.16 30.92 30.82 29.69 28.97 28.97 28.33 28.29
28.65 27.29 27.11 21.57 21.65 21.52 21.29 22.32 20.58 22.97 24.54 24.56 25.15 25.93 22.38 22.04 24.42 25.42 26.23 26.83 26.94 26.11 27.81 31.02 31.88 29.95 27.06 29.50 30.93 28.30 27.20 28.39 28.78 27.82 28.29 30.43 28.35 29.62 28.75 28.10 28.24 28.10 28.01 27.22 27.27
MSLP
1015.15 1014.85 1014.21 1014.33 1014.59 1014.77 1014.78 1014.84 1014.95 1015.07 1015.30 1015.39 1015.39 1015.47 1015.47 1015.58 1015.83 1015.44 1015.02 1013.86 1013.50 1013.94 1014.06 1014.47 1014.51 1014.43 1014.60 1014.33 1014.31 1013.96 1013.03 1012.11 1012.07 1011.95 1011.28 1011.78 1011.60 1011.87 1011.92 1011.66 1011.58 1011.63 1011.65 1012.40 1012.95
1015.33 1014.95 1014.54 1013.95 1013.98 1014.33 1014.46 1014.53 1014.65 1014.79 1014.94 1014.93 1014.95 1015.19 1015.39 1015.28 1015.33 1014.75 1013.49 1013.66 1013.71 1013.85 1013.74 1013.96 1014.04 1014.33 1014.42 1014.25 1014.11 1013.74 1012.88 1012.44 1012.12 1011.97 1011.63 1011.82 1011.79 1011.74 1011.75 1011.39 1011.02 1011.25 1011.69 1012.69 1013.29
1015.31 1015.24 1014.86 1014.28 1013.59 1013.82 1014.02 1014.07 1014.12 1014.28 1014.53 1014.64 1014.59 1014.73 1014.90 1015.04 1014.85 1013.46 1013.29 1013.59 1013.35 1013.61 1013.43 1013.73 1013.89 1014.32 1014.22 1014.06 1014.04 1013.79 1013.28 1012.81 1012.53 1012.38 1012.33 1012.07 1011.96 1012.01 1011.52 1010.79 1010.51 1010.41 1010.84 1012.17 1012.70
1015.16 1015.12 1014.99 1014.57 1013.91 1013.64 1013.75 1013.86 1013.80 1013.90 1014.08 1014.16 1014.33 1014.45 1014.50 1014.64 1014.00 1013.18 1012.82 1013.00 1013.30 1013.47 1013.63 1013.93 1014.39 1014.42 1014.19 1013.98 1014.15 1014.31 1013.43 1012.93 1012.87 1012.99 1012.87 1012.34 1012.17 1011.90 1011.49 1010.39 1010.42 1010.48 1010.97 1011.61 1012.01
1014.91 1015.06 1015.00 1014.72 1014.65 1013.89 1013.40 1013.64 1014.00 1013.94 1013.95 1014.21 1014.27 1014.21 1014.25 1014.11 1013.38 1013.09 1013.03 1012.94 1013.45 1013.52 1013.56 1013.49 1013.80 1013.96 1013.64 1013.58 1013.97 1013.77 1013.25 1013.40 1013.27 1013.37 1013.01 1012.89 1012.24 1011.88 1011.10 1010.45 1010.49 1010.80 1011.19 1011.19 1011.40
1014.67 1014.92 1015.03 1014.94 1014.72 1014.62 1014.05 1013.73 1013.98 1014.10 1013.74 1013.96 1014.04 1014.10 1014.06 1013.72 1013.06 1013.07 1013.45 1013.15 1013.03 1013.40 1013.62 1013.58 1013.49 1013.82 1013.86 1013.73 1013.71 1013.50 1013.46 1013.36 1013.36 1013.30 1013.16 1012.88 1011.96 1012.04 1010.53 1010.54 1010.46 1010.68 1010.67 1010.82 1010.90
1014.55 1014.60 1014.83 1014.85 1014.85 1014.80 1014.51 1014.26 1014.10 1014.02 1013.91 1013.78 1013.85 1013.97 1013.96 1013.51 1013.21 1013.14 1013.08 1012.89 1013.44 1013.47 1013.46 1013.80 1013.57 1013.61 1013.94 1013.94 1013.98 1013.85 1013.53 1013.34 1013.21 1013.21 1013.14 1012.90 1011.78 1010.97 1010.22 1010.49 1010.41 1010.28 1010.34 1010.44 1010.39
1014.47 1014.27 1014.52 1014.91 1014.83 1014.77 1014.63 1014.42 1014.28 1014.02 1013.86 1013.69 1013.78 1013.97 1013.34 1013.44 1013.42 1013.35 1013.45 1013.63 1013.50 1013.69 1013.68 1013.78 1013.89 1013.93 1014.14 1014.53 1014.37 1013.76 1013.74 1013.05 1013.06 1013.26 1013.41 1013.12 1011.30 1010.40 1010.34 1010.30 1009.81 1009.94 1009.93 1009.98 1010.07
1014.25 1013.98 1014.36 1014.71 1014.90 1014.88 1014.66 1014.31 1014.13 1013.78 1013.86 1013.98 1014.22 1014.27 1013.63 1013.51 1013.30 1013.19 1013.40 1013.38 1013.64 1013.99 1013.99 1013.84 1014.10 1014.35 1014.66 1014.68 1014.56 1014.12 1013.07 1013.04 1013.05 1013.39 1013.46 1013.53 1011.69 1010.63 1010.20 1009.90 1009.62 1009.58 1009.62 1009.76 1009.93
1013.83 1013.66 1014.03 1014.31 1014.54 1014.52 1014.52 1014.13 1014.05 1013.88 1013.98 1014.13 1014.22 1014.43 1013.48 1013.11 1012.97 1013.16 1013.46 1013.24 1013.39 1013.84 1013.94 1013.97 1014.26 1014.24 1014.35 1014.51 1014.19 1013.54 1013.76 1013.57 1013.18 1013.94 1013.66 1013.18 1011.69 1010.34 1009.93 1009.62 1009.84 1009.81 1010.00 1010.10 1010.38
1013.49 1013.35 1013.81 1014.18 1014.54 1014.48 1014.34 1014.16 1014.26 1014.26 1013.78 1013.03 1012.78 1012.69 1012.70 1012.93 1012.94 1013.26 1013.39 1013.32 1013.62 1013.90 1013.79 1014.54 1014.35 1013.79 1013.90 1014.43 1014.53 1013.78 1013.85 1013.55 1013.55 1013.83 1013.43 1012.42 1011.65 1010.81 1009.89 1010.09 1010.47 1010.75 1010.83 1010.99 1011.16
1012.98 1013.26 1013.84 1014.16 1014.34 1014.30 1014.37 1014.38 1014.13 1014.05 1013.71 1013.32 1013.04 1012.72 1012.66 1012.77 1013.12 1013.48 1013.61 1013.43 1013.98 1014.28 1014.30 1015.08 1014.06 1014.34 1014.56 1014.77 1014.81 1014.30 1014.15 1014.09 1013.90 1013.90 1013.53 1012.64 1011.19 1010.59 1010.76 1011.49 1011.87 1012.25 1012.37 1012.45 1012.40
1013.26 1013.61 1013.90 1014.24 1014.40 1014.38 1014.67 1014.22 1014.12 1013.83 1013.61 1013.73 1013.10 1012.66 1012.58 1012.74 1012.98 1013.35 1013.68 1013.69 1014.10 1014.55 1014.23 1014.27 1014.60 1014.65 1014.82 1015.07 1015.06 1014.60 1014.25 1014.43 1014.38 1014.19 1013.94 1013.35 1011.52 1011.22 1011.92 1012.42 1012.71 1013.60 1014.12 1014.07 1014.14
1013.58 1013.84 1014.02 1014.10 1014.81 1014.53 1014.60 1014.32 1014.33 1013.81 1013.65 1013.54 1013.09 1012.55 1012.68 1012.57 1013.43 1013.93 1013.81 1013.81 1014.46 1014.38 1014.84 1015.10 1015.08 1014.81 1014.83 1014.73 1015.02 1014.70 1014.32 1014.23 1014.26 1014.23 1013.91 1014.05 1012.99 1012.20 1012.61 1013.15 1014.05 1015.02 1015.38 1015.48 1015.37
1013.76 1013.88 1014.00 1014.36 1014.16 1014.39 1014.65 1014.48 1014.30 1013.83 1013.46 1013.17 1012.99 1012.83 1012.67 1012.93 1013.42 1014.07 1014.05 1013.89 1014.14 1014.31 1015.05 1014.96 1014.88 1014.75 1014.90 1014.59 1014.79 1014.83 1014.73 1014.36 1014.48 1014.54 1014.62 1014.59 1014.56 1013.06 1013.73 1014.54 1015.72 1016.77 1017.25 1017.14 1016.99
1013.74 1013.79 1013.96 1014.34 1014.42 1014.77 1014.82 1014.85 1014.29 1014.40 1013.32 1013.06 1012.82 1012.77 1012.91 1013.33 1013.82 1014.05 1014.00 1014.13 1014.54 1014.40 1014.94 1015.10 1015.21 1014.94 1014.86 1015.22 1014.99 1015.20 1015.08 1015.16 1015.18 1015.06 1015.17 1015.12 1015.68 1014.72 1016.14 1017.70 1017.98 1018.58 1018.83 1018.68 1018.39
1014.06 1014.01 1014.07 1014.30 1014.58 1014.53 1014.43 1014.18 1014.46 1014.14 1013.89 1013.24 1012.84 1012.83 1012.74 1013.32 1013.99 1014.02 1014.02 1014.34 1014.00 1014.68 1015.05 1015.38 1015.38 1015.37 1015.16 1015.34 1015.61 1015.23 1015.01 1015.38 1015.61 1015.40 1015.27 1016.02 1016.56 1016.24 1017.90 1019.26 1020.18 1020.29 1020.21 1020.15 1019.77
1014.31 1014.23 1014.59 1014.80 1014.57 1014.18 1013.97 1013.87 1014.07 1014.10 1013.34 1013.02 1012.76 1012.87 1012.80 1012.97 1013.69 1013.99 1014.06 1014.17 1014.18 1013.76 1014.16 1014.62 1015.51 1015.24 1015.13 1014.86 1014.86 1015.16 1014.96 1014.23 1014.40 1015.26 1015.48 1016.45 1016.39 1017.02 1019.18 1020.40 1021.22 1021.63 1021.52 1021.31 1021.07
1014.42 1014.67 1014.74 1014.85 1014.61 1014.04 1013.94 1014.05 1013.81 1013.84 1012.98 1012.69 1013.02 1012.88 1012.90 1013.13 1013.25 1013.84 1014.11 1014.03 1013.88 1013.72 1013.38 1013.95 1014.75 1015.29 1015.48 1015.16 1015.28 1015.33 1015.20 1014.85 1014.87 1016.34 1015.77 1015.16 1016.50 1018.37 1019.54 1020.84 1021.82 1022.16 1021.99 1022.24 1022.05
1014.71 1014.98 1015.16 1015.10 1014.45 1014.16 1014.29 1014.71 1014.73 1014.24 1013.73 1013.13 1012.74 1012.88 1012.97 1013.28 1013.56 1013.85 1014.49 1014.56 1014.16 1013.99 1013.89 1013.98 1014.98 1015.85 1015.89 1015.73 1015.51 1015.12 1014.74 1015.04 1014.74 1014.96 1015.20 1015.31 1016.55 1017.68 1019.78 1021.46 1022.50 1022.78 1022.99 1023.27 1022.99
1015.00 1015.16 1015.49 1015.20 1014.91 1014.90 1014.97 1015.76 1015.60 1015.16 1014.66 1013.99 1013.10 1013.02 1013.36 1013.72 1014.02 1014.45 1014.77 1015.40 1015.13 1014.62 1014.38 1014.53 1014.67 1016.34 1016.37 1015.70 1015.06 1015.54 1014.97 1014.65 1014.54 1014.41 1014.59 1015.83 1017.03 1019.48 1021.04 1022.51 1023.33 1023.85 1024.13 1024.21 1023.97
1015.43 1015.70 1015.81 1015.47 1015.50 1015.93 1016.30 1016.38 1016.28 1016.06 1015.39 1014.63 1013.98 1014.01 1014.31 1014.76 1015.11 1015.49 1015.93 1016.19 1016.01 1015.45 1014.90 1015.22 1015.80 1016.12 1016.22 1016.12 1015.83 1015.38 1014.85 1014.45 1014.07 1014.87 1015.39 1016.54 1018.64 1020.93 1022.27 1023.48 1024.25 1024.75 1025.05 1025.17 1024.98
1016.12 1016.53 1016.07 1015.91 1016.33 1017.03 1017.41 1017.29 1017.24 1016.76 1016.63 1015.91 1015.66 1015.50 1015.43 1015.93 1016.40 1016.73 1017.12 1017.47 1016.92 1016.50 1016.05 1015.91 1016.26 1016.57 1017.02 1016.86 1016.26 1015.69 1015.41 1015.04 1014.73 1014.80 1015.40 1016.69 1019.40 1021.80 1023.00 1024.10 1025.00 1025.25 1025.60 1025.76 1025.63
1017.00 1017.48 1017.15 1017.38 1018.42 1017.76 1017.90 1018.19 1018.19 1018.29 1017.99 1017.49 1017.13 1016.71 1016.65 1017.23 1017.38 1017.89 1018.30 1018.56 1018.12 1017.92 1017.29 1016.80 1016.85 1016.54 1016.27 1016.04 1016.06 1016.18 1015.93 1015.68 1015.52 1015.48 1015.54 1016.43 1019.22 1021.80 1023.17 1024.15 1025.24 1025.60 1026.04 1026.26 1026.38
1017.88 1019.32 1019.66 1019.32 1019.38 1018.91 1018.69 1019.03 1019.06 1019.42 1019.10 1018.60 1018.40 1018.27 1018.08 1018.70 1019.15 1019.56 1019.64 1019.47 1019.31 1019.01 1018.42 1018.08 1017.77 1017.57 1017.45 1017.42 1017.31 1017.27 1017.28 1017.10 1016.70 1016.37 1016.79 1017.40 1019.39 1021.42 1023.52 1024.57 1025.58 1026.36 1026.64 1026.75 1026.91
1018.23 1019.08 1019.94 1020.19 1020.22 1019.65 1019.62 1020.10 1020.04 1020.32 1019.95 1019.70 1019.66 1019.74 1019.21 1020.17 1020.94 1021.01 1021.04 1020.98 1020.86 1020.06 1019.44 1019.16 1018.86 1018.42 1018.45 1018.22 1018.35 1018.65 1018.95 1018.87 1018.73 1018.62 1018.55 1019.39 1021.61 1023.33 1024.49 1025.38 1026.13 1026.89 1027.15 1027.26 1027.45
1019.00 1019.31 1019.28 1021.02 1020.73 1020.51 1021.05 1020.82 1021.04 1020.71 1021.15 1020.99 1021.04 1020.78 1021.19 1022.40 1022.43 1022.43 1022.32 1022.04 1021.76 1021.34 1020.71 1020.11 1019.49 1019.22 1019.18 1019.14 1019.37 1020.13 1020.46 1020.48 1020.60 1020.80 1021.02 1021.44 1023.00 1024.31 1025.22 1026.13 1026.87 1027.38 1027.68 1027.97 1028.02
Wind_Speed
16 16 10 15 14 14 12 10 8 9 7 6 5 4 2 2 3 6 7 4 3 8 9 9 4 5 3 3 1 1 5 6 4 6 1 2 3 2 0 3 2 3 2 3 7
13 16 20 12 15 15 14 12 9 8 8 7 4 5 4 1 3 8 2 8 7 11 10 11 9 9 4 4 3 4 5 7 3 4 2 1 2 1 3 3 5 6 6 4 7
9 11 16 19 14 15 15 13 9 10 8 6 3 4 1 5 4 4 5 10 10 12 7 7 8 4 4 3 4 2 3 4 2 4 3 3 3 1 3 7 10 8 3 8 9
7 8 11 16 17 15 12 6 2 6 8 4 3 3 2 3 5 1 9 13 12 11 12 11 9 7 7 8 6 6 7 2 1 3 3 3 2 5 7 12 5 6 3 5 11
4 3 6 12 13 19 10 9 4 4 8 4 3 2 2 3 1 2 6 11 13 9 12 11 15 6 7 5 5 6 3 4 5 5 5 2 10 7 12 15 12 10 8 11 13
7 1 3 5 11 13 15 8 4 1 6 5 4 3 1 3 2 3 7 6 8 6 7 9 9 4 2 3 8 2 7 5 4 5 3 4 7 1 2 2 1 3 8 8 10
17 5 4 4 6 9 11 11 5 4 1 4 3 2 2 1 1 3 2 3 7 2 6 2 5 4 5 3 1 0 4 5 8 1 3 4 9 10 8 6 9 8 8 8 8
17 8 6 3 5 8 9 10 8 4 3 3 5 2 3 1 4 5 5 4 3 2 4 5 4 5 2 3 1 2 4 5 3 1 2 1 7 2 2 1 4 8 8 8 9
14 13 10 6 4 5 8 10 11 4 3 9 3 1 2 2 4 4 2 8 8 5 3 5 2 2 5 4 2 3 3 6 1 1 2 5 7 1 3 9 14 11 11 9 12
12 11 6 5 3 4 7 8 10 6 5 3 4 2 2 4 4 5 2 7 5 9 6 4 3 4 4 5 5 4 4 5 4 2 4 9 15 16 12 9 13 15 13 10 10
12 12 7 7 3 4 3 2 4 4 4 3 6 2 6 4 2 3 2 5 5 3 6 3 7 13 12 8 1 3 1 1 2 1 4 4 12 15 16 10 11 12 11 10 10
10 11 10 7 2 4 2 1 2 2 5 3 5 3 3 2 5 3 4 5 6 8 9 6 13 8 6 6 8 2 2 2 1 2 4 7 18 11 8 9 14 15 15 14 14
15 11 7 4 1 2 4 1 2 1 3 1 3 2 4 4 3 11 9 4 5 8 11 8 1 12 9 9 10 9 9 4 3 3 1 8 6 3 5 9 13 16 15 15 15
11 8 4 2 2 3 3 2 3 1 3 4 4 1 4 5 4 2 3 3 3 10 7 4 4 11 11 7 10 9 8 6 2 2 3 5 5 5 3 8 16 18 18 17 17
7 4 2 4 5 6 3 2 2 3 8 7 5 1 1 4 11 2 1 2 9 8 6 4 6 11 6 6 8 0 4 5 3 3 3 2 3 2 4 4 16 18 18 18 17
4 2 5 4 3 2 3 3 2 1 4 5 5 6 10 3 3 4 3 4 3 5 3 3 2 1 2 3 6 10 6 5 3 1 4 2 3 0 4 7 10 14 15 17 18
9 11 4 1 3 5 2 5 5 2 1 7 5 8 16 7 6 8 12 8 6 8 7 1 1 0 2 6 4 2 7 3 3 4 3 2 4 3 4 6 9 12 14 15 16
9 6 4 5 5 4 2 3 4 2 4 4 5 14 9 11 5 7 13 9 3 2 7 9 6 8 5 2 6 8 4 4 5 4 3 2 6 2 7 7 7 9 11 14 16
3 2 3 7 6 2 4 5 4 6 4 9 12 11 5 6 6 6 11 9 6 6 1 7 3 2 0 2 3 7 6 2 6 2 2 4 3 6 7 10 11 12 14 15 15
2 2 4 11 8 2 3 5 2 1 3 3 7 5 7 10 5 8 11 2 3 6 6 3 5 0 1 2 2 4 7 4 1 6 6 3 3 2 5 8 10 13 14 14 14
2 2 4 9 2 2 5 3 3 1 4 2 4 6 7 7 4 6 8 3 2 5 8 2 0 2 2 7 9 4 4 1 1 2 3 4 3 5 5 5 7 10 11 12 13
2 3 4 4 3 3 3 3 1 3 6 6 4 8 5 5 4 2 4 5 6 2 10 3 2 4 3 1 2 1 3 6 4 5 1 2 3 4 6 6 6 8 9 11 12
3 1 2 3 3 3 3 4 7 7 7 5 5 5 6 4 5 3 4 5 9 4 5 7 3 5 2 2 1 4 4 2 3 2 6 5 3 5 6 6 6 7 9 9 12
3 2 4 5 2 4 4 4 6 8 6 5 4 3 4 5 9 4 3 6 5 7 9 4 2 2 3 3 2 4 4 4 8 4 5 8 7 10 7 6 5 7 7 9 10
4 3 1 3 5 7 3 3 4 5 3 9 5 7 1 5 4 5 4 2 5 11 4 3 2 2 3 3 3 2 2 2 10 9 8 3 4 11 7 6 5 5 5 7 10
3 4 2 3 3 5 8 5 5 3 6 5 9 9 6 7 4 4 2 5 3 7 3 3 3 2 3 4 2 2 1 2 0 2 3 4 5 5 7 7 5 5 6 8 9
1 2 3 7 4 3 3 3 4 3 9 8 4 6 14 6 4 5 4 4 3 3 3 2 2 1 3 3 3 3 1 1 3 5 3 4 5 8 6 6 6 6 6 7 9
Wind_Direction
354 358 317 228 231 235 233 232 210 188 180 195 179 154 183 158 216 163 216 227 190 141 134 138 142 130 171 130 128 264 225 221 201 198 171 183 214 167 77 241 215 214 255 54 120
355 352 349 317 229 238 248 251 233 208 192 193 173 157 166 157 204 218 249 183 141 155 146 157 155 144 177 153 146 242 220 207 218 205 205 223 279 302 227 188 229 241 195 145 160
346 353 348 355 245 232 241 249 238 223 201 199 205 117 158 178 198 183 181 199 177 174 150 154 144 172 176 141 185 173 253 206 205 234 249 258 245 245 233 259 238 257 245 183 195
328 355 353 359 5 264 238 133 144 195 196 223 253 109 131 194 204 66 270 172 163 162 146 145 164 187 177 179 180 212 230 232 233 208 203 243 321 250 220 253 287 266 249 202 214
278 357 7 7 4 13 211 124 99 122 93 124 188 98 182 196 176 7 113 122 143 147 167 161 168 171 198 182 154 230 234 214 247 250 258 282 256 272 262 263 261 254 253 249 247
242 96 80 25 13 2 10 75 75 54 87 66 107 143 144 227 5 133 127 114 140 151 157 167 171 158 133 173 209 235 240 255 274 255 246 265 274 339 239 21 273 243 257 248 252
299 149 107 59 20 4 358 358 12 352 65 87 81 120 154 144 8 132 117 95 140 173 148 180 130 170 137 169 201 117 290 244 223 253 245 232 255 232 263 291 283 271 269 261 257
293 158 124 87 32 350 345 333 333 322 316 121 91 55 250 75 151 138 147 106 96 90 131 139 135 107 85 98 39 217 242 248 86 127 58 20 264 194 109 153 326 299 279 278 280
290 158 145 107 52 346 332 329 321 333 274 141 116 211 212 161 165 135 167 143 126 113 82 99 110 130 146 167 186 183 260 230 253 57 65 204 282 201 167 306 305 305 309 309 301
278 181 210 112 14 341 324 325 292 320 161 113 95 193 198 188 139 121 73 132 113 133 110 98 81 157 149 179 216 180 210 223 198 128 219 229 262 290 299 307 309 318 322 332 343
279 161 144 100 331 337 349 29 215 161 238 194 186 106 123 107 77 76 125 98 111 132 149 101 192 205 191 199 322 125 212 207 118 57 275 267 289 288 299 350 6 2 350 358 12
206 136 134 118 321 335 27 231 342 72 153 240 124 96 109 174 110 134 165 134 154 159 127 148 223 193 173 183 217 162 143 270 299 349 306 316 296 297 23 61 49 27 21 11 4
113 111 114 144 198 314 245 95 333 38 112 144 192 170 155 154 115 169 174 126 137 151 175 170 140 170 163 184 205 224 229 189 249 306 156 300 279 31 75 100 46 32 24 18 12
105 110 127 160 170 171 198 29 278 0 137 175 179 203 134 139 86 354 187 126 140 172 165 228 129 157 178 181 198 230 217 186 216 228 278 333 290 311 18 120 31 16 16 13 9
93 100 137 196 126 172 54 24 232 18 163 138 133 48 81 155 122 188 302 99 156 140 182 163 162 150 177 207 184 165 145 140 123 162 294 184 250 226 17 4 5 6 6 8 8
50 43 124 126 132 59 302 218 94 190 135 160 129 157 153 124 76 117 141 55 101 93 39 82 355 173 98 65 186 141 100 72 78 161 234 142 247 300 12 338 338 356 7 8 8
85 62 80 75 116 311 272 193 97 221 303 154 157 166 166 143 121 162 173 169 159 140 169 140 132 312 160 107 84 252 168 140 183 193 242 35 224 11 77 22 2 356 7 12 14
64 57 39 57 312 303 246 116 154 162 190 127 143 154 170 150 129 160 162 181 226 122 142 168 187 187 169 201 191 196 249 219 207 193 146 124 227 113 94 63 39 29 27 27 23
61 23 38 352 325 266 191 190 143 193 136 132 135 153 143 151 135 148 183 188 206 205 199 170 133 46 343 136 192 168 217 56 109 61 275 184 127 144 138 53 36 31 34 28 26
73 52 23 334 329 15 105 94 85 341 355 204 153 165 158 166 138 173 173 177 195 193 300 138 122 68 85 165 78 256 148 149 271 172 211 189 248 112 189 25 27 28 27 24 26
62 97 0 340 359 37 161 96 113 324 345 355 141 121 136 145 145 164 168 80 22 163 197 162 1 105 172 208 178 157 194 109 196 260 189 170 147 10 83 58 43 37 31 25 26
90 72 3 323 57 45 107 107 153 20 14 51 70 62 111 127 98 106 119 24 326 282 183 156 47 162 184 36 348 5 220 191 198 185 281 335 134 100 99 78 57 51 39 32 32
70 1 16 289 130 112 84 84 57 36 28 40 56 23 57 72 120 100 100 13 22 52 141 161 180 144 160 213 135 217 189 181 87 85 193 180 136 149 125 90 69 62 47 38 32
89 81 21 53 22 75 107 59 103 33 57 49 59 64 98 62 37 99 99 33 12 19 28 76 153 276 243 61 64 168 195 206 217 225 227 240 141 188 166 114 77 63 54 45 37
30 79 338 67 37 78 65 57 81 47 33 20 58 39 113 104 75 65 42 95 45 355 38 68 103 132 73 99 61 70 71 205 223 242 239 153 94 162 150 123 89 63 48 39 32
111 137 67 63 75 47 13 31 63 94 6 25 85 58 93 94 38 118 31 21 26 351 61 1 102 112 75 60 76 140 48 227 312 351 279 149 110 130 119 117 98 62 45 41 34
66 99 100 17 36 91 30 104 141 170 49 57 99 91 63 75 72 75 57 76 61 39 49 32 94 63 107 19 142 200 29 333 103 49 342 226 82 152 141 116 91 87 65 41 18